Location: ????????
(55.0559°N, 39.1270°E)
Time: 00:20:48
(UTC+00:00)

Lacrosse 5 rocket - Pass Details

Date: 15 November 2025
Orbit: 406 x 492 km, 57.0° (Epoch: 12 December)

Event Time Altitude Azimuth Distance (km) Brightness Sun altitude
Exits shadow 02:49:05 56° 263° (W) 513 0.8 -17.8°
Maximum altitude 02:49:38 71° 204° (SSW) 452 0.7 -17.7°
Drops below altitude 10° 02:52:56 10° 121° (ESE) 1,489 4.6 -17.2°
Sets 02:55:00 0° 119° (ESE) 2,340 5.9 -16.9°
